TimeMST,TemperatureF,Dew PointF,Humidity,Sea Level PressureIn,VisibilityMPH,Wind Direction,Wind SpeedMPH,Gust SpeedMPH,PrecipitationIn,Events,Conditions,WindDirDegrees,DateUTC
12:53 AM,30.0,19.9,66,30.14,10.0,West,11.5,-,N/A,,Clear,260,2013-01-23 07:53:00
1:53 AM,28.9,19.0,67,30.15,10.0,West,3.5,-,N/A,,Clear,270,2013-01-23 08:53:00
2:53 AM,25.0,17.1,72,30.14,10.0,Calm,Calm,-,N/A,,Clear,0,2013-01-23 09:53:00
3:53 AM,24.1,18.0,77,30.14,10.0,Calm,Calm,-,N/A,,Clear,0,2013-01-23 10:53:00
4:53 AM,24.1,17.1,75,30.16,10.0,WNW,4.6,-,N/A,,Clear,300,2013-01-23 11:53:00
5:53 AM,25.0,16.0,69,30.18,10.0,West,8.1,-,N/A,,Clear,280,2013-01-23 12:53:00
6:53 AM,26.1,16.0,66,30.19,10.0,West,10.4,-,N/A,,Clear,280,2013-01-23 13:53:00
7:53 AM,26.1,18.0,71,30.21,10.0,WNW,4.6,-,N/A,,Clear,290,2013-01-23 14:53:00
8:53 AM,28.0,19.0,69,30.24,10.0,WSW,3.5,-,N/A,,Clear,250,2013-01-23 15:53:00
9:53 AM,37.0,23.0,57,30.23,10.0,Calm,Calm,-,N/A,,Clear,0,2013-01-23 16:53:00
10:53 AM,46.9,24.1,41,30.22,10.0,NNE,3.5,-,N/A,,Clear,30,2013-01-23 17:53:00
11:53 AM,45.0,23.0,42,30.21,10.0,East,4.6,-,N/A,,Clear,90,2013-01-23 18:53:00
12:53 PM,46.9,19.9,34,30.17,10.0,NE,4.6,-,N/A,,Clear,40,2013-01-23 19:53:00
1:53 PM,46.0,18.0,33,30.20,10.0,NE,9.2,-,N/A,,Clear,50,2013-01-23 20:53:00
2:53 PM,46.0,19.0,34,30.22,10.0,NE,12.7,-,N/A,,Clear,50,2013-01-23 21:53:00
3:53 PM,39.0,21.0,49,30.27,10.0,ENE,11.5,-,N/A,,Clear,60,2013-01-23 22:53:00
4:53 PM,33.1,19.9,59,30.28,10.0,ENE,12.7,-,N/A,,Clear,60,2013-01-23 23:53:00
5:53 PM,28.9,19.9,69,30.33,10.0,ENE,12.7,-,N/A,,Clear,60,2013-01-24 00:53:00
6:53 PM,27.0,19.0,72,30.35,10.0,East,9.2,-,N/A,,Clear,80,2013-01-24 01:53:00
7:53 PM,27.0,19.0,72,30.37,10.0,ESE,5.8,-,N/A,,Clear,110,2013-01-24 02:53:00
8:53 PM,25.0,18.0,75,30.39,10.0,ESE,5.8,-,N/A,,Clear,110,2013-01-24 03:53:00
9:53 PM,23.0,17.1,78,30.38,10.0,SE,10.4,-,N/A,,Clear,130,2013-01-24 04:53:00
10:53 PM,21.0,15.1,78,30.37,10.0,ESE,10.4,-,N/A,,Clear,120,2013-01-24 05:53:00
11:53 PM,19.9,12.9,74,30.36,10.0,ESE,12.7,-,N/A,,Clear,120,2013-01-24 06:53:00